Location: ?p Dangia
(12.0167°N, 108.4333°E)
Time: 09:59:53
(UTC+00:00)

Aureole 2 Rocket - Pass Details

Date: 07 June 2020
Orbit: 307 x 433 km, 73.9° (Epoch: 03 July)

Event Time Altitude Azimuth Distance (km) Brightness Sun altitude
Rises 11:47:17 0° 196° (SSW) 2,355 5.9 -9.2°
Reaches altitude 10° 11:49:23 10° 198° (SSW) 1,474 4.9 -9.7°
Maximum altitude 11:52:36 73° 282° (WNW) 420 2.4 -10.4°
Drops below altitude 10° 11:55:41 10° 8° (N) 1,407 5.1 -11.1°
Sets 11:57:38 0° 11° (N) 2,234 6.2 -11.5°
